Hourly Weather Bolshie Lozicy

Today, 17 June, Thursday

Time Temperature Precipitation Wind Pressure Humidity
00:00 +13°C° 0 mm 3 mps 747 mmHg 75%
01:00 +12°C° 0 mm 3 mps 748 mmHg 74%
02:00 +12°C° 0 mm 3 mps 748 mmHg 73%
03:00 +12°C° 0 mm 3 mps 748 mmHg 75%
04:00 +13°C° 0 mm 2 mps 748 mmHg 77%
05:00 +13°C° 0 mm 2 mps 748 mmHg 78%
06:00 +15°C° 0 mm 2 mps 749 mmHg 74%
07:00 +17°C° 0 mm 2 mps 749 mmHg 70%
08:00 +19°C° 0 mm 2 mps 749 mmHg 66%
09:00 +21°C° 0 mm 2 mps 750 mmHg 62%
10:00 +23°C° 0 mm 2 mps 750 mmHg 58%
11:00 +24°C° 0 mm 2 mps 750 mmHg 55%
12:00 +24°C° 0 mm 2 mps 750 mmHg 54%
13:00 +25°C° 0 mm 2 mps 750 mmHg 53%
14:00 +25°C° 0 mm 2 mps 750 mmHg 52%
15:00 +25°C° 0 mm 2 mps 750 mmHg 55%
16:00 +25°C° 0 mm 2 mps 750 mmHg 58%
17:00 +25°C° 0 mm 2 mps 750 mmHg 61%
18:00 +23°C° 0 mm 2 mps 750 mmHg 67%
19:00 +21°C° 0 mm 2 mps 750 mmHg 73%
20:00 +19°C° 0 mm 2 mps 750 mmHg 78%
21:00 +18°C° 0 mm 2 mps 751 mmHg 80%
22:00 +17°C° 0 mm 2 mps 751 mmHg 82%
23:00 +16°C° 0 mm 2 mps 751 mmHg 84%

Tomorrow, 18 June, Friday

Time Temperature Precipitation Wind Pressure Humidity
00:00 +16°C° 0 mm 2 mps 751 mmHg 86%
01:00 +15°C° 0 mm 2 mps 751 mmHg 88%
02:00 +15°C° 0 mm 2 mps 751 mmHg 89%
03:00 +15°C° 0 mm 2 mps 751 mmHg 88%
04:00 +15°C° 0 mm 2 mps 751 mmHg 88%
05:00 +15°C° 0 mm 2 mps 752 mmHg 87%
06:00 +17°C° 0 mm 2 mps 752 mmHg 81%
07:00 +18°C° 0 mm 3 mps 752 mmHg 76%
08:00 +20°C° 0 mm 3 mps 752 mmHg 71%
09:00 +21°C° 0 mm 3 mps 752 mmHg 67%
10:00 +22°C° 0 mm 3 mps 752 mmHg 62%
11:00 +23°C° 0 mm 4 mps 752 mmHg 58%
12:00 +25°C° 0 mm 4 mps 752 mmHg 57%
13:00 +25°C° 0 mm 4 mps 751 mmHg 56%
14:00 +26°C° 0 mm 4 mps 751 mmHg 55%
15:00 +26°C° 0 mm 4 mps 751 mmHg 58%
16:00 +26°C° 0 mm 3 mps 751 mmHg 62%
17:00 +25°C° 0 mm 3 mps 751 mmHg 65%
18:00 +24°C° 0 mm 3 mps 751 mmHg 71%
19:00 +21°C° 0 mm 3 mps 751 mmHg 76%
20:00 +20°C° 0 mm 2 mps 750 mmHg 82%
21:00 +19°C° 0 mm 2 mps 751 mmHg 84%
22:00 +18°C° 0 mm 2 mps 751 mmHg 86%
23:00 +17°C° 0 mm 2 mps 751 mmHg 88%

Day after tomorrow, 19 June, Saturday

Time Temperature Precipitation Wind Pressure Humidity
00:00 +16°C° 0 mm 2 mps 751 mmHg 90%
01:00 +16°C° 0 mm 2 mps 751 mmHg 91%
02:00 +15°C° 0 mm 2 mps 751 mmHg 92%
03:00 +16°C° 0 mm 2 mps 751 mmHg 93%
04:00 +16°C° 0 mm 2 mps 751 mmHg 93%
05:00 +16°C° 0 mm 2 mps 751 mmHg 93%
06:00 +18°C° 0 mm 2 mps 751 mmHg 87%
07:00 +19°C° 0 mm 3 mps 751 mmHg 82%
08:00 +21°C° 0 mm 3 mps 751 mmHg 77%
09:00 +22°C° 0 mm 3 mps 751 mmHg 72%
10:00 +24°C° 0 mm 3 mps 751 mmHg 68%
11:00 +25°C° 0 mm 3 mps 751 mmHg 63%
12:00 +26°C° 0 mm 3 mps 750 mmHg 61%
13:00 +26°C° 0 mm 3 mps 750 mmHg 60%
14:00 +27°C° 0 mm 3 mps 750 mmHg 58%
15:00 +27°C° 0 mm 3 mps 750 mmHg 60%
16:00 +26°C° 0 mm 3 mps 749 mmHg 63%
17:00 +26°C° 0 mm 3 mps 749 mmHg 65%
18:00 +25°C° 0 mm 3 mps 749 mmHg 72%
19:00 +22°C° 0 mm 3 mps 749 mmHg 78%
20:00 +21°C° 0 mm 3 mps 749 mmHg 84%
21:00 +20°C° 0 mm 3 mps 749 mmHg 86%
22:00 +19°C° 0 mm 2 mps 749 mmHg 88%
23:00 +18°C° 0 mm 2 mps 749 mmHg 90%

20 June, Sunday

Time Temperature Precipitation Wind Pressure Humidity
00:00 +17°C° 0 mm 2 mps 749 mmHg 91%
01:00 +17°C° 0 mm 2 mps 749 mmHg 92%
02:00 +17°C° 0 mm 2 mps 749 mmHg 93%
03:00 +17°C° 0 mm 2 mps 749 mmHg 93%
04:00 +17°C° 0 mm 2 mps 749 mmHg 94%
05:00 +18°C° 0 mm 2 mps 749 mmHg 94%
06:00 +19°C° 0 mm 2 mps 749 mmHg 89%
07:00 +21°C° 0 mm 3 mps 749 mmHg 83%
08:00 +22°C° 0 mm 3 mps 749 mmHg 78%
09:00 +24°C° 0 mm 3 mps 749 mmHg 74%
10:00 +25°C° 0 mm 4 mps 749 mmHg 70%
11:00 +26°C° 0 mm 4 mps 749 mmHg 66%
12:00 +27°C° 0 mm 4 mps 748 mmHg 64%
13:00 +27°C° 0 mm 3 mps 748 mmHg 62%
14:00 +28°C° 0 mm 3 mps 748 mmHg 61%
15:00 +28°C° 0 mm 3 mps 748 mmHg 63%
16:00 +28°C° 0 mm 3 mps 747 mmHg 66%
17:00 +27°C° 0 mm 3 mps 747 mmHg 69%
18:00 +26°C° 0 mm 3 mps 747 mmHg 75%
19:00 +24°C° 0 mm 3 mps 747 mmHg 80%
20:00 +22°C° 0 mm 3 mps 747 mmHg 86%
21:00 +21°C° 0 mm 2 mps 747 mmHg 87%
22:00 +20°C° 0 mm 2 mps 747 mmHg 89%
23:00 +19°C° 0 mm 2 mps 747 mmHg 90%

21 June, Monday

Time Temperature Precipitation Wind Pressure Humidity
00:00 +18°C° 0 mm 2 mps 747 mmHg 91%
01:00 +18°C° 0 mm 2 mps 747 mmHg 91%
02:00 +17°C° 0 mm 2 mps 747 mmHg 92%
03:00 +17°C° 0 mm 2 mps 747 mmHg 92%
04:00 +18°C° 0 mm 2 mps 747 mmHg 92%
05:00 +18°C° 0 mm 3 mps 747 mmHg 91%
06:00 +19°C° 0 mm 3 mps 747 mmHg 86%
07:00 +21°C° 0 mm 4 mps 747 mmHg 80%
08:00 +22°C° 0 mm 4 mps 746 mmHg 74%
09:00 +23°C° 0 mm 4 mps 746 mmHg 71%
10:00 +25°C° 0 mm 5 mps 746 mmHg 68%
11:00 +26°C° 0 mm 5 mps 746 mmHg 65%
12:00 +26°C° 0 mm 5 mps 746 mmHg 66%
13:00 +26°C° 0 mm 5 mps 746 mmHg 66%
14:00 +27°C° 0 mm 5 mps 746 mmHg 66%
15:00 +27°C° 0 mm 5 mps 745 mmHg 67%
16:00 +27°C° 0 mm 4 mps 745 mmHg 68%
17:00 +27°C° 0 mm 4 mps 745 mmHg 69%
18:00 +26°C° 0 mm 4 mps 745 mmHg 75%
19:00 +25°C° 0 mm 4 mps 745 mmHg 80%
20:00 +22°C° 0 mm 3 mps 744 mmHg 86%
21:00 +22°C° 0 mm 3 mps 744 mmHg 88%
22:00 +21°C° 0 mm 4 mps 744 mmHg 91%
23:00 +20°C° 0 mm 4 mps 744 mmHg 93%

22 June, Tuesday

Time Temperature Precipitation Wind Pressure Humidity
00:00 +20°C° 0 mm 4 mps 744 mmHg 94%
01:00 +20°C° 0 mm 4 mps 744 mmHg 95%
02:00 +19°C° 0 mm 4 mps 744 mmHg 96%
03:00 +19°C° 0 mm 4 mps 744 mmHg 95%
04:00 +19°C° 0 mm 4 mps 744 mmHg 95%
05:00 +19°C° 0 mm 3 mps 744 mmHg 95%
06:00 +21°C° 0 mm 4 mps 744 mmHg 88%
07:00 +22°C° 0 mm 5 mps 745 mmHg 82%
08:00 +25°C° 0 mm 5 mps 745 mmHg 76%
09:00 +26°C° 0 mm 5 mps 745 mmHg 71%
10:00 +27°C° 0 mm 6 mps 745 mmHg 66%
11:00 +29°C° 0 mm 6 mps 745 mmHg 61%
12:00 +29°C° 0 mm 6 mps 745 mmHg 59%
13:00 +30°C° 0 mm 6 mps 745 mmHg 57%
14:00 +30°C° 0 mm 6 mps 744 mmHg 55%
15:00 +30°C° 0 mm 5 mps 744 mmHg 58%
16:00 +30°C° 0 mm 5 mps 744 mmHg 61%
17:00 +30°C° 0 mm 5 mps 744 mmHg 64%
18:00 +28°C° 0 mm 4 mps 744 mmHg 70%
19:00 +26°C° 0 mm 4 mps 745 mmHg 76%
20:00 +25°C° 0 mm 4 mps 745 mmHg 82%
21:00 +23°C° 0 mm 4 mps 745 mmHg 86%
22:00 +22°C° 0 mm 4 mps 745 mmHg 90%
23:00 +21°C° 0 mm 3 mps 745 mmHg 94%
Show more